Vertical_Velocity
1 0 0 2 1 1 -0 -2 -2 -2 -0 -0 4 3 5 3 1 11 -7 15 15 -9 -18 -7 12 -3 -2 -14 3 -29 26 8 23 16 11 7 -8 -25 16 1 -28 2 3 -2 6 1 -8 -9 6 -6 -4 -2 3 3
0 3 -1 -1 -0 1 0 -0 1 1 2 4 6 4 5 4 3 11 -1 5 13 20 -22 3 11 24 -13 0 -2 10 5 18 -6 15 3 9 -0 2 2 -13 -5 -6 -23 -5 -11 -20 -1 -7 -5 10 -2 4 -3 3
2 0 0 -0 -0 1 -0 -1 -0 0 1 0 0 1 3 5 2 3 4 -3 17 42 18 12 -39 -5 0 -23 22 11 -5 13 10 5 -4 1 -6 16 -7 -8 15 9 4 -1 20 -6 3 6 -6 -5 1 0 3 2
1 1 -0 -1 1 1 -0 -1 1 3 5 5 4 3 2 3 4 12 0 4 9 17 6 -15 24 -36 7 0 3 -14 8 21 73 14 9 -2 2 3 -3 -1 -8 -6 2 -0 -8 7 -0 -3 2 9 9 2 -3 -6
1 0 0 -0 1 1 0 -0 0 1 3 2 5 7 4 9 6 14 17 -2 3 -2 -4 -16 11 8 4 -3 -11 -17 -4 17 6 51 -11 -8 -2 9 2 4 -14 -4 -9 -9 -24 10 4 -1 -18 -3 -2 1 -0 -9
3 0 1 -1 1 0 1 -1 3 2 4 9 22 -11 3 9 20 29 9 13 -2 3 19 4 2 -14 -2 7 18 25 7 10 28 13 12 -2 -5 3 -7 -13 4 9 8 5 -25 -1 -9 8 -1 -2 5 3 -4 -0
2 1 1 1 1 2 -0 1 3 2 7 18 -9 -2 -4 12 17 -23 2 1 3 -9 16 13 5 -0 -6 -11 -12 -3 12 1 13 7 -4 10 1 -2 0 -11 9 4 -12 -5 -11 -1 0 3 5 9 10 0 1 0
0 1 2 1 1 2 1 2 -2 1 9 6 1 15 8 19 41 49 1 -2 0 6 7 -9 12 8 -5 12 17 8 6 9 3 -8 -0 -0 14 -5 -18 6 8 -5 -7 5 8 -3 -3 2 -2 -1 0 2 3 4
0 1 1 1 0 1 1 2 -1 3 6 -3 3 -1 10 7 7 2 -6 -5 10 -1 -2 9 0 1 8 18 8 7 9 13 6 1 5 11 2 -13 -4 4 -2 -2 -1 4 -3 1 2 0 0 1 1 1 2 -2
0 1 1 1 -0 -1 1 3 3 -3 7 -0 -2 7 2 5 -0 2 12 6 8 -1 -0 -0 5 -5 5 10 11 12 6 2 -1 -5 4 2 -4 -5 -5 -7 -1 -3 0 -8 5 -3 -5 -2 1 2 1 -1 -1 -1
1 -0 2 2 0 1 1 0 5 1 11 11 -2 -10 8 14 15 8 2 3 2 -0 -6 0 1 -4 2 7 1 -3 8 -2 -1 -0 3 1 -1 -3 2 1 -3 -4 -2 5 2 0 -1 -6 -2 -2 -1 -2 -1 0
-0 0 1 2 0 -0 -1 1 0 11 3 -3 -6 -6 -3 0 2 2 5 4 6 1 3 1 -6 17 11 6 -1 -4 6 1 5 1 -6 -1 -5 -3 -2 -5 3 3 4 -2 -2 3 -0 0 -3 -1 -1 -0 0 -1
-2 -1 -1 1 3 0 1 0 -3 1 -0 3 -2 3 2 -0 -5 -7 -5 -2 1 -2 -4 -4 1 5 -1 2 3 3 2 -2 -1 1 -2 2 5 3 1 2 1 2 3 -1 -1 4 2 2 -2 1 -2 -1 -1 -1
-2 -1 1 -2 -1 2 -1 -1 0 -2 -1 -0 -0 -3 -4 -5 -2 -3 -2 0 1 3 5 11 2 -8 4 2 -2 -6 -2 3 3 1 0 0 1 2 8 6 4 -1 0 0 -0 2 5 0 -2 -3 -3 -0 2 1
0 -1 -0 1 -2 -1 -1 1 -0 -0 0 -2 0 -3 -1 4 4 3 3 0 1 4 3 -2 -3 -4 -3 -10 -3 0 -3 -1 -0 -0 1 2 2 2 -3 0 4 4 1 1 3 3 2 1 -2 -3 -2 -2 -1 -2
-1 -1 -1 -0 -1 0 -2 -3 0 3 -5 -5 1 0 1 0 1 4 6 1 2 9 10 7 1 -2 -0 -1 1 1 -0 0 0 2 2 1 0 1 2 4 4 3 2 2 2 -0 -2 -3 -1 -3 -4 -1 1 -1
-2 -2 -2 -2 -1 -2 -2 -2 -2 -4 -2 -5 1 0 -0 1 0 -1 2 3 1 3 -0 0 -1 -3 -1 -2 -1 1 1 0 2 1 0 5 5 3 2 1 -1 -0 -1 -1 -3 -2 -2 -2 -2 -1 -0 1 -2 -3
-2 -2 -2 -2 -2 -1 -2 -3 -3 -2 -1 1 -1 -2 -1 -1 -2 -3 -5 -4 -4 -3 -2 -3 0 -1 -1 -1 0 -2 -2 -0 -1 2 3 2 2 1 0 0 0 -1 -3 -2 -1 -1 -1 -1 2 -3 -2 -5 -3 -0
-3 -2 -1 -3 -2 -1 -2 -1 -2 -3 -2 -1 1 1 -2 0 -1 -1 -3 -5 -5 -4 -4 -2 -1 -1 -1 -0 -1 -0 -1 1 -2 -3 -1 -0 1 1 -0 -1 -1 -1 -1 1 1 -1 -2 -0 -3 -2 -3 -3 -2 -0
-2 -1 -0 -0 -1 -1 -2 -1 0 -1 -2 -3 -2 -1 -0 -0 -0 0 -0 -0 -1 -1 -2 -4 -2 -1 -1 -0 -0 -1 0 -0 -1 -2 -3 -2 -2 -1 -0 -1 -2 -0 -0 -0 1 2 -0 -3 -0 -6 1 1 -0 0
-0 0 -0 0 1 -0 -2 -2 -0 0 -0 -1 -1 -0 -0 -1 -2 -2 -2 -2 -2 -1 1 3 1 0 -0 0 1 -1 -2 -2 -1 -1 -1 -1 1 0 -0 -2 -1 0 -1 -2 -1 -4 1 -0 0 1 5 -2 -3 -2
1 2 1 -1 -1 -0 -1 -2 -1 -1 -1 -0 0 -1 1 0 -1 -2 -4 -4 -2 1 1 -1 -2 -2 -1 -1 -2 -3 -3 -1 1 0 1 1 1 0 -0 -1 -1 1 -2 -1 1 -1 -0 1 2 0 -3 -2 -0 1
0 2 2 1 -0 -1 -2 0 -1 0 -1 -2 -0 -1 -2 0 -1 -0 -2 -5 -1 6 0 -4 -4 -2 -2 -0 0 -1 -1 -1 -1 -1 -0 0 -1 -1 -0 -2 -1 -1 1 -0 -1 -0 1 0 -1 -2 -1 0 0 1
4 3 1 -3 -2 2 -1 -0 -1 1 0 -2 -2 -2 -2 -1 -1 -2 -5 0 3 -2 -2 -2 -3 -2 -1 -1 2 3 2 0 -1 -0 0 0 0 0 0 -0 -0 -1 -1 -1 -1 -1 -1 -1 -1 -1 -0 -0 0 1
2 2 -0 -1 -1 0 -1 -1 -1 0 -0 -0 0 -2 -2 -0 0 -3 -3 -1 -2 -1 -1 -2 -1 -1 -1 -1 -1 -0 1 1 1 1 -0 0 -1 -2 -1 -1 -1 -1 -1 -0 0 -0 0 0 -0 -1 -1 -0 0 -1
-2 0 0 1 1 -0 -0 0 1 -1 1 3 1 -0 -1 0 -3 -2 -0 0 -1 -2 -2 -0 0 -1 -0 2 -2 -1 1 2 2 0 -0 0 2 2 1 1 1 0 -0 -0 1 1 -1 -1 -1 -1 -1 -1 -1 -1
-1 -1 -1 1 -1 -1 -1 0 1 2 2 -1 -2 -0 -1 -3 -1 -0 1 0 0 0 -1 -2 -0 -0 0 1 1 2 -3 1 7 8 -2 -1 -1 -2 -2 -3 -3 -1 -0 -0 -1 -1 -1 -1 -1 -1 -1 -1 -1 -1
0 -2 -0 2 0 1 1 -0 -0 -1 -1 -1 -1 -1 -0 -0 -0 0 0 1 1 2 1 -0 -1 -2 -1 -0 -1 -3 4 2 3 -3 -4 -3 -3 -2 -2 -2 -1 -1 -1 -1 -1 -1 -1 -0 -0 -1 -1 -1 -1 -1
-1 -1 2 -1 2 0 -0 1 0 -1 -1 0 3 2 -1 -0 1 0 1 1 1 0 1 1 -1 -2 0 0 0 -1 14 3 -3 -3 1 2 2 1 1 0 -0 -0 -0 -1 -1 -1 -1 -0 -1 -1 0 -0 -0 -1
1 0 -0 1 -2 -1 -0 0 -0 -1 -0 -0 0 1 1 2 1 -1 -2 -1 0 -0 -1 2 1 -0 -0 2 2 -0 -2 -3 -3 -2 -3 -1 5 0 -0 -2 -1 -1 -1 -0 -0 -0 -1 -0 -0 -0 0 -0 -1 -2
0 1 -1 -0 -0 2 1 1 0 2 2 -0 0 -1 -0 -0 -0 -1 -2 -2 -1 2 1 -1 1 2 1 0 -1 -1 -1 -0 -0 0 1 -2 -2 -1 -0 -1 -1 0 0 0 -0 0 -0 0 0 0 -1 -1 -1 -1
2 0 -0 -0 -1 3 2 1 -0 -3 -1 -1 -2 -1 -0 0 -2 -1 -3 -2 -1 -1 2 2 0 -0 -0 -1 -0 1 -3 4 -2 1 -0 -1 1 0 -1 -1 0 0 1 0 1 0 -0 -0 -1 -1 -1 -1 -1 -1
1 0 1 -1 -1 1 3 -1 0 -0 -1 -0 -0 1 0 0 -3 -1 0 -1 -1 -1 -2 -1 -0 -1 -0 1 0 1 2 2 0 -0 -1 -1 1 1 -1 1 1 0 -0 -0 0 -0 -0 -1 -1 -0 -0 -0 -1 -1
Height
2882 2876 2871 2865 2859 2856 2851 2847 2846 2848 2850 2851 2853 2856 2860 2863 2868 2872 2875 2881 2880 2881 2890 2897 2904 2910 2918 2924 2928 2932 2940 2935 2945 2946 2952 2953 2960 2967 2976 2977 2987 2993 2997 2997 3002 3004 2996 3006 3009 3012 3015 3015 3016 3017
2873 2868 2861 2855 2851 2846 2842 2838 2835 2836 2837 2839 2841 2843 2846 2851 2856 2862 2863 2871 2878 2875 2882 2890 2895 2903 2910 2917 2919 2919 2921 2932 2936 2941 2945 2951 2953 2959 2962 2971 2978 2985 2985 2991 2996 2993 2995 2999 3002 3003 3006 3007 3007 3008
2865 2859 2853 2850 2846 2841 2837 2833 2831 2830 2830 2830 2831 2832 2835 2839 2844 2849 2854 2861 2869 2871 2873 2880 2882 2894 2900 2905 2909 2910 2913 2917 2928 2938 2943 2947 2948 2956 2954 2958 2970 2972 2978 2984 2990 2985 2987 2990 2993 2996 2998 2999 2999 2999
2858 2853 2849 2846 2841 2837 2834 2831 2829 2827 2825 2824 2823 2823 2824 2826 2831 2837 2841 2849 2859 2866 2868 2869 2877 2882 2893 2895 2897 2900 2903 2909 2918 2930 2935 2938 2942 2947 2950 2957 2961 2967 2973 2975 2977 2977 2979 2983 2986 2988 2990 2990 2991 2993
2854 2849 2846 2842 2838 2835 2833 2830 2827 2824 2821 2819 2817 2814 2812 2813 2818 2826 2833 2838 2848 2861 2861 2865 2869 2873 2882 2886 2889 2893 2896 2903 2911 2914 2922 2929 2934 2941 2943 2949 2950 2957 2961 2966 2966 2971 2975 2980 2982 2983 2983 2983 2982 2983
2852 2847 2844 2840 2837 2834 2831 2829 2826 2822 2818 2813 2805 2795 2788 2790 2801 2815 2823 2832 2839 2851 2861 2863 2860 2861 2866 2871 2877 2884 2891 2898 2906 2911 2914 2919 2926 2935 2937 2937 2943 2949 2952 2957 2962 2966 2967 2971 2972 2973 2973 2972 2971 2973
2849 2846 2842 2839 2836 2833 2831 2828 2825 2821 2815 2808 2797 2780 2762 2769 2783 2797 2808 2818 2833 2851 2857 2861 2855 2856 2862 2869 2871 2874 2884 2892 2898 2902 2908 2913 2920 2926 2927 2928 2935 2939 2944 2950 2954 2957 2958 2959 2961 2962 2964 2964 2963 2962
2848 2845 2842 2839 2836 2833 2831 2828 2825 2820 2814 2807 2799 2788 2774 2773 2790 2808 2816 2825 2838 2847 2855 2858 2852 2853 2857 2862 2865 2871 2877 2887 2893 2897 2901 2906 2912 2918 2921 2924 2926 2932 2937 2941 2944 2948 2951 2952 2952 2954 2955 2956 2956 2956
2847 2844 2841 2839 2837 2834 2831 2829 2826 2821 2816 2813 2806 2803 2801 2800 2807 2817 2824 2832 2843 2850 2852 2851 2848 2850 2853 2855 2860 2868 2873 2882 2886 2891 2895 2902 2904 2909 2911 2912 2918 2925 2929 2931 2934 2939 2941 2944 2946 2947 2949 2950 2950 2951
2847 2844 2841 2839 2836 2835 2833 2831 2829 2824 2820 2820 2818 2816 2817 2818 2822 2828 2838 2841 2846 2849 2850 2846 2849 2853 2855 2854 2857 2866 2871 2877 2881 2885 2889 2893 2897 2901 2905 2910 2914 2918 2922 2926 2928 2931 2935 2938 2941 2943 2944 2946 2948 2949
2848 2845 2842 2840 2838 2837 2835 2833 2832 2829 2826 2824 2824 2823 2825 2827 2831 2834 2838 2843 2846 2849 2847 2847 2848 2853 2856 2856 2854 2863 2866 2872 2877 2881 2887 2888 2890 2895 2900 2904 2909 2913 2916 2921 2924 2927 2929 2933 2937 2940 2942 2943 2944 2945
2848 2847 2845 2843 2841 2839 2837 2836 2834 2835 2832 2830 2828 2828 2831 2831 2832 2834 2837 2840 2840 2841 2841 2844 2848 2849 2852 2854 2854 2859 2863 2867 2868 2875 2882 2882 2884 2889 2894 2901 2907 2911 2914 2918 2923 2926 2928 2930 2933 2936 2938 2940 2940 2940
2848 2847 2846 2845 2843 2842 2840 2839 2839 2838 2835 2835 2834 2834 2836 2838 2838 2837 2838 2839 2839 2838 2840 2843 2849 2850 2851 2855 2858 2862 2865 2869 2873 2876 2879 2881 2883 2889 2895 2901 2905 2909 2913 2917 2923 2925 2925 2926 2929 2931 2933 2935 2935 2935
2847 2847 2846 2845 2844 2843 2842 2842 2841 2840 2837 2835 2836 2837 2840 2840 2840 2840 2840 2839 2839 2841 2843 2846 2849 2852 2855 2858 2861 2865 2869 2871 2872 2873 2875 2877 2882 2889 2895 2899 2904 2909 2914 2917 2921 2922 2922 2922 2924 2926 2928 2930 2930 2931
2846 2846 2846 2846 2845 2844 2844 2843 2842 2840 2837 2836 2838 2841 2843 2843 2842 2841 2841 2841 2843 2846 2849 2852 2853 2856 2856 2860 2864 2868 2870 2871 2873 2875 2876 2878 2884 2890 2896 2902 2906 2909 2913 2916 2917 2918 2918 2919 2921 2923 2925 2927 2928 2929
2845 2846 2846 2846 2846 2846 2845 2845 2844 2842 2840 2840 2842 2845 2845 2845 2845 2845 2846 2847 2850 2853 2855 2856 2857 2860 2861 2863 2865 2866 2869 2871 2873 2874 2876 2881 2887 2893 2899 2903 2905 2908 2911 2913 2913 2914 2916 2917 2919 2922 2924 2926 2926 2926
2844 2845 2845 2846 2846 2846 2846 2847 2846 2845 2845 2847 2848 2849 2849 2849 2849 2850 2851 2853 2854 2856 2856 2857 2858 2861 2864 2865 2867 2869 2871 2873 2874 2876 2880 2886 2891 2895 2898 2901 2904 2907 2909 2910 2911 2913 2914 2916 2919 2921 2923 2924 2924 2924
2842 2844 2845 2846 2846 2847 2847 2847 2848 2849 2850 2851 2851 2851 2852 2852 2853 2853 2855 2856 2857 2858 2860 2861 2862 2864 2866 2868 2871 2873 2875 2876 2878 2881 2884 2888 2892 2895 2898 2901 2903 2905 2907 2908 2910 2911 2913 2916 2918 2920 2921 2922 2922 2921
2840 2842 2843 2845 2846 2847 2848 2849 2850 2851 2852 2853 2854 2854 2855 2855 2855 2856 2857 2858 2859 2861 2863 2864 2866 2867 2869 2871 2873 2875 2877 2880 2882 2885 2887 2890 2893 2896 2898 2900 2902 2904 2905 2907 2908 2910 2912 2915 2916 2917 2918 2919 2919 2918
2837 2839 2841 2843 2845 2847 2848 2849 2850 2851 2852 2853 2854 2855 2856 2857 2857 2858 2858 2859 2860 2862 2864 2865 2868 2869 2871 2873 2875 2877 2879 2882 2884 2886 2888 2890 2892 2894 2897 2898 2900 2901 2902 2904 2906 2908 2910 2912 2914 2915 2916 2916 2916 2916
2834 2837 2840 2841 2844 2846 2848 2848 2849 2850 2851 2852 2853 2854 2855 2856 2857 2858 2858 2859 2861 2862 2864 2865 2868 2870 2872 2874 2876 2878 2880 2882 2884 2886 2887 2888 2891 2892 2894 2895 2897 2898 2899 2902 2904 2906 2908 2909 2910 2912 2913 2913 2913 2912
2831 2834 2837 2839 2842 2844 2846 2847 2849 2850 2851 2851 2853 2854 2854 2855 2855 2856 2857 2858 2860 2862 2863 2865 2866 2868 2870 2872 2875 2877 2879 2881 2882 2883 2885 2886 2888 2890 2891 2892 2894 2896 2898 2900 2903 2904 2905 2907 2908 2910 2910 2910 2909 2907
2828 2831 2834 2838 2841 2842 2844 2844 2846 2847 2849 2850 2851 2852 2853 2854 2854 2855 2855 2855 2857 2859 2859 2861 2863 2865 2867 2869 2872 2874 2876 2878 2880 2881 2882 2883 2884 2886 2888 2890 2892 2894 2896 2897 2899 2901 2903 2905 2906 2906 2906 2906 2905 2904
2826 2829 2832 2835 2837 2837 2839 2840 2842 2845 2846 2847 2849 2850 2851 2852 2852 2852 2851 2852 2853 2852 2853 2855 2857 2860 2862 2865 2868 2870 2873 2875 2877 2879 2880 2881 2883 2884 2887 2889 2890 2892 2894 2895 2897 2899 2900 2901 2902 2902 2903 2903 2902 2901
2826 2828 2830 2829 2831 2833 2835 2836 2838 2841 2843 2844 2847 2848 2849 2850 2850 2849 2848 2848 2848 2849 2850 2851 2852 2855 2857 2859 2861 2864 2867 2870 2873 2876 2878 2879 2881 2883 2885 2887 2889 2891 2892 2893 2894 2896 2898 2898 2899 2900 2900 2900 2899 2898
2821 2822 2824 2823 2826 2829 2830 2832 2834 2837 2839 2841 2843 2844 2846 2847 2848 2846 2846 2846 2846 2846 2846 2847 2848 2850 2852 2855 2857 2860 2863 2866 2869 2872 2875 2877 2880 2882 2884 2886 2888 2889 2890 2891 2892 2894 2895 2896 2897 2897 2897 2897 2896 2894
2816 2817 2818 2820 2822 2824 2827 2829 2831 2833 2835 2837 2839 2841 2843 2844 2844 2844 2844 2843 2843 2843 2844 2844 2845 2845 2847 2850 2852 2856 2858 2862 2867 2870 2872 2875 2877 2880 2882 2884 2885 2887 2888 2889 2890 2891 2892 2893 2894 2894 2894 2894 2892 2891
2811 2813 2815 2818 2820 2823 2824 2826 2828 2831 2833 2834 2837 2838 2840 2841 2842 2842 2842 2843 2843 2842 2842 2841 2842 2843 2845 2847 2849 2851 2855 2859 2862 2865 2869 2872 2875 2877 2879 2881 2883 2884 2885 2886 2887 2888 2889 2890 2891 2891 2891 2890 2889 2888
2808 2810 2812 2814 2817 2820 2822 2824 2826 2828 2830 2832 2833 2835 2837 2838 2840 2841 2842 2842 2842 2842 2842 2841 2841 2842 2844 2845 2848 2851 2855 2858 2861 2864 2867 2870 2873 2875 2877 2878 2880 2881 2882 2883 2885 2886 2887 2887 2888 2888 2888 2888 2887 2887
2804 2806 2809 2811 2813 2816 2819 2821 2823 2826 2828 2830 2832 2833 2835 2836 2838 2839 2839 2840 2841 2841 2841 2841 2841 2842 2844 2846 2849 2852 2854 2856 2859 2861 2864 2867 2870 2872 2873 2875 2877 2878 2879 2881 2882 2883 2884 2885 2885 2886 2886 2886 2885 2885
2800 2802 2805 2808 2811 2814 2816 2819 2821 2823 2825 2827 2828 2830 2832 2833 2835 2835 2836 2837 2838 2839 2839 2840 2840 2841 2842 2844 2846 2848 2851 2854 2856 2858 2860 2862 2865 2867 2869 2871 2873 2875 2876 2878 2879 2880 2881 2882 2883 2883 2884 2884 2884 2883
2795 2798 2801 2804 2808 2811 2813 2815 2817 2819 2821 2823 2824 2826 2828 2830 2831 2832 2833 2834 2835 2835 2836 2837 2838 2839 2840 2841 2843 2845 2847 2850 2852 2855 2857 2859 2862 2864 2866 2868 2870 2872 2873 2875 2876 2877 2879 2880 2880 2881 2882 2882 2882 2881
2794 2796 2798 2800 2803 2806 2809 2812 2813 2815 2817 2818 2820 2822 2823 2825 2826 2828 2829 2830 2832 2832 2832 2833 2834 2835 2836 2837 2839 2841 2843 2845 2848 2850 2853 2855 2858 2861 2862 2864 2866 2868 2870 2871 2873 2874 2876 2877 2878 2879 2879 2880 2880 2880